[[{"header":{"parameterUnit":"m.s-1","parameterCategory":2,"la1":30.2991,"la2":30.254,"lo1":-89.0895,"lo2":-89.0444,"dy":0.0017,"dx":0.0017,"nx":28,"ny":28,"refTime":"2025-12-16T09:00:00:Z","depth":"0","parameterNumber":2,"parameterNumberName":"U-component_of_CURRENTS"},"data":[0,0,0,0,0,0,0,0,0,0,0,0,0,0,0,0,0,0,0,0,0,0,0,0,0,0,0,0,0,0,0,0,0,0,0,0,0,0,0,0,0,0,0,0,0,0,0,0,0,0,0,0,0,0,0,0,0,0,-0.236,-0.2361,0,-0.2447,-0.2448,-0.2448,-0.2445,-0.2444,-0.2444,-0.2443,-0.2463,-0.2464,-0.2466,0,0,0,0,0,0,0,0,0,0,0,0,0,-0.2198,-0.22,-0.236,-0.2362,-0.2363,-0.2447,-0.2448,-0.2448,-0.2445,-0.2444,-0.2443,-0.2443,-0.2463,-0.2464,-0.2466,0,0,0,0,0,0,0,0,0,0,0,0,0,-0.227,-0.2201,-0.236,-0.2375,-0.2378,-0.2447,-0.2448,-0.2449,-0.2445,-0.2444,-0.2443,-0.2442,-0.2462,-0.2464,-0.2466,-0.25,0,0,-0.2472,-0.2472,0,0,0,0,0,0,0,0,-0.2266,-0.2275,-0.2371,-0.2374,-0.2377,-0.2438,-0.2398,-0.2464,-0.2446,-0.2415,-0.2443,-0.2442,-0.2453,-0.2455,-0.2468,-0.2501,-0.2502,-0.2472,-0.2473,-0.2474,-0.2474,0,0,0,0,0,0,0,-0.2261,-0.2272,-0.2389,-0.2373,-0.2377,-0.2381,-0.2389,-0.2411,-0.2434,-0.2417,-0.2418,-0.2436,-0.2453,-0.2466,-0.2468,-0.2502,-0.2472,-0.2473,-0.2474,-0.2475,-0.2561,-0.2562,0,0,0,0,0,0,-0.2262,-0.2267,-0.2387,-0.2393,-0.2323,-0.2385,-0.2394,-0.2416,-0.2435,-0.2439,-0.2437,-0.2436,-0.2464,-0.2466,-0.2469,-0.2528,-0.2474,-0.2475,-0.2476,-0.2559,-0.2561,-0.2562,0,0,0,0,0,0,-0.2258,-0.2272,-0.2383,-0.2335,-0.235,-0.2389,-0.2414,-0.2418,-0.2431,-0.2452,-0.2453,-0.2445,-0.2463,-0.2466,-0.2504,-0.2528,-0.2476,-0.2478,-0.2558,-0.256,-0.2561,-0.2634,0,0,0,0,0,0,-0.2253,-0.227,-0.228,-0.2336,-0.2353,-0.2435,-0.2416,-0.2421,-0.2446,-0.2445,-0.246,-0.246,-0.2462,-0.2501,-0.2506,-0.2529,-0.2479,-0.2557,-0.2559,-0.2561,-0.263,-0.2638,-0.2645,0,0,0,0,0,-0.2247,-0.2272,-0.228,-0.2295,-0.2368,-0.2437,-0.2446,-0.2465,-0.2448,-0.2468,-0.2479,-0.246,-0.2517,-0.2505,-0.251,-0.2534,-0.2556,-0.2558,-0.2561,-0.2627,-0.2637,-0.2645,0,0,0,0,0,0,-0.2211,-0.2276,-0.2286,-0.233,-0.2384,-0.2438,-0.2453,-0.2469,-0.2493,-0.2483,-0.2487,-0.2491,-0.253,-0.2523,-0.2509,-0.2562,-0.2528,-0.2532,-0.2577,-0.2586,-0.2593,-0.2594,-0.2481,0,0,0,0,0,-0.2209,-0.2235,-0.2308,-0.2339,-0.2364,-0.2406,-0.2432,-0.2454,-0.2488,-0.2496,-0.2513,-0.2523,-0.2547,-0.2558,-0.2577,-0.2614,-0.2609,-0.2628,-0.2635,-0.2641,-0.2644,-0.2665,-0.2675,-0.2571,-0.2571,-0.257,0,0,-0.2202,-0.2241,-0.2256,-0.2331,-0.2362,-0.2428,-0.2417,-0.2464,-0.2516,-0.2496,-0.2551,-0.2553,-0.2562,-0.2607,-0.2622,-0.2603,-0.267,-0.2644,-0.265,-0.265,-0.2669,-0.2679,-0.2688,-0.2572,-0.2572,-0.2572,0,0,-0.2217,-0.2237,-0.2274,-0.2327,-0.2393,-0.2431,-0.2447,-0.2513,-0.2532,-0.2599,-0.2588,-0.2607,-0.2652,-0.2663,-0.2673,-0.273,-0.2709,-0.2728,-0.2768,-0.2789,-0.2798,-0.2806,-0.2821,-0.2829,-0.273,-0.273,-0.273,0,-0.2204,-0.2269,-0.2295,-0.2358,-0.2405,-0.2436,-0.2504,-0.2543,-0.2613,-0.2639,-0.2624,-0.2687,-0.2682,-0.2737,-0.2747,-0.2748,-0.2753,-0.2737,-0.28,-0.2807,-0.2814,-0.2827,-0.2835,-0.2734,-0.2733,-0.2733,-0.2733,0,-0.2262,-0.2319,-0.2344,-0.2432,-0.2486,-0.2544,-0.2615,-0.266,-0.2682,-0.2723,-0.2779,-0.2782,-0.2812,-0.2813,-0.2797,-0.2842,-0.2829,-0.2809,-0.2779,-0.2829,-0.284,-0.2847,-0.2739,-0.2738,-0.2737,-0.2736,0,0,-0.2219,-0.2358,-0.2367,-0.2427,-0.253,-0.2585,-0.2667,-0.2758,-0.2814,-0.2854,-0.2922,-0.2938,-0.2918,-0.2925,-0.2905,-0.2916,-0.2956,-0.2879,-0.2878,-0.2897,-0.3005,-0.2862,-0.2856,-0.295,-0.2952,-0.2953,-0.2997,0,-0.2255,-0.2371,-0.2443,-0.2563,-0.2625,-0.2698,-0.2783,-0.2861,-0.2911,-0.2983,-0.2981,-0.3028,-0.2969,-0.2976,-0.298,-0.296,-0.2978,-0.2946,-0.2951,-0.2951,-0.282,-0.286,-0.2723,-0.2738,-0.3004,-0.3005,-0.3006,0,-0.2286,-0.2361,-0.2477,-0.2631,-0.2669,-0.2755,-0.2878,-0.2961,-0.3058,-0.3094,-0.3127,-0.3127,-0.3139,-0.3083,-0.3082,-0.3065,-0.3038,-0.3024,-0.3025,-0.2868,-0.2821,-0.2729,-0.2741,-0.272,-0.3017,-0.3016,-0.3015,0,-0.2222,-0.2387,-0.2475,-0.2529,-0.2705,-0.2776,-0.2866,-0.2982,-0.3055,-0.3148,-0.3188,-0.322,-0.321,-0.3204,-0.3112,-0.3119,-0.3103,-0.3114,-0.2975,-0.2966,-0.2834,-0.2809,-0.2823,-0.3133,-0.3133,-0.3133,-0.3133,0,-0.2229,-0.2303,-0.2458,-0.2511,-0.2639,-0.2755,-0.2892,-0.2982,-0.3102,-0.3155,-0.3217,-0.322,-0.3234,-0.3203,-0.3159,-0.3052,-0.3132,-0.2986,-0.2966,-0.2854,-0.2831,-0.2791,-0.281,-0.3135,-0.3134,-0.3134,-0.3134,0,-0.2167,-0.2263,-0.2373,-0.2549,-0.2616,-0.2697,-0.2908,-0.2983,-0.3099,-0.3163,-0.3182,-0.323,-0.3178,-0.317,-0.3141,-0.3073,-0.2955,-0.2962,-0.2814,-0.2774,-0.2633,-0.266,-0.2629,-0.2561,-0.2869,-0.2866,-0.2863,0,-0.2153,-0.2196,-0.2372,-0.2432,-0.2525,-0.2673,-0.2768,-0.2949,-0.3012,-0.3114,-0.3109,-0.3116,-0.3042,-0.297,-0.2895,-0.2835,-0.2818,-0.2659,-0.2642,-0.2601,-0.262,-0.2638,-0.2585,-0.252,-0.2515,-0.2511,-0.2507,0,-0.2111,-0.2162,-0.2249,-0.2359,-0.2466,-0.2591,-0.2726,-0.2775,-0.292,-0.2948,-0.2899,-0.2855,-0.282,-0.2674,-0.2618,-0.2554,-0.258,-0.2564,-0.2576,-0.2383,-0.2353,-0.2283,-0.2526,-0.2468,-0.2472,-0.2475,-0.2477,-0.2478,-0.2053,-0.2088,-0.2172,-0.2276,-0.2376,-0.2423,-0.2445,-0.2542,-0.2566,-0.2538,-0.2608,-0.251,-0.248,-0.2383,-0.2329,-0.2215,-0.2311,-0.2155,-0.2207,-0.2242,-0.2115,-0.2249,-0.2121,-0.2123,-0.2124,-0.2126,-0.2127,0,-0.1956,-0.2,-0.2083,-0.2167,-0.219,-0.2291,-0.2347,-0.2297,-0.2202,-0.2247,-0.2181,-0.2144,-0.2025,-0.2049,-0.198,-0.1895,-0.1881,-0.1847,-0.1881,-0.1857,-0.2017,-0.1936,-0.1694,-0.1694,-0.1694,-0.1694,-0.1694,-0.1694,-0.1902,-0.1916,-0.1958,-0.1943,-0.1987,-0.1919,-0.1882,-0.1802,-0.1796,-0.1698,-0.1719,-0.1807,-0.1849,-0.1943,-0.1833,-0.1743,-0.1735,-0.1646,-0.1712,-0.1869,-0.1903,-0.1937,-0.1865,-0.1611,-0.1611,-0.1472,-0.1472,-0.1471]},{"header":{"parameterUnit":"m.s-1","parameterCategory":2,"la1":30.2991,"la2":30.254,"lo1":-89.0895,"lo2":-89.0444,"dy":0.0017,"dx":0.0017,"nx":28,"ny":28,"refTime":"2025-12-16T09:00:00:Z","depth":"0","parameterNumber":3,"parameterNumberName":"V-component_of_CURRENTS"},"data":[0,0,0,0,0,0,0,0,0,0,0,0,0,0,0,0,0,0,0,0,0,0,0,0,0,0,0,0,0,0,0,0,0,0,0,0,0,0,0,0,0,0,0,0,0,0,0,0,0,0,0,0,0,0,0,0,0,0,-0.0213,-0.0213,0,-0.0154,-0.0153,-0.0152,-0.0107,-0.0107,-0.0106,-0.0106,-0.0022,-0.002,-0.0018,0,0,0,0,0,0,0,0,0,0,0,0,0,-0.0252,-0.0252,-0.0213,-0.0213,-0.0212,-0.0154,-0.0153,-0.0152,-0.0107,-0.0107,-0.0106,-0.0106,-0.0022,-0.002,-0.0018,0,0,0,0,0,0,0,0,0,0,0,0,0,-0.0218,-0.0252,-0.0214,-0.0183,-0.018,-0.0154,-0.0153,-0.0152,-0.0107,-0.0107,-0.0106,-0.0106,-0.0023,-0.002,-0.0017,-0.001,0,0,-0.0009,-0.0007,0,0,0,0,0,0,0,0,-0.022,-0.0216,-0.0188,-0.0185,-0.0181,-0.0138,-0.0136,-0.0103,-0.0107,-0.0134,-0.0106,-0.0105,-0.0059,-0.0053,-0.0042,-0.0006,-0.0003,-0.0008,-0.0007,-0.0005,-0.0004,0,0,0,0,0,0,0,-0.0222,-0.0218,-0.0189,-0.0188,-0.0183,-0.016,-0.0155,-0.0129,-0.0099,-0.0132,-0.0128,-0.0123,-0.0057,-0.0045,-0.004,-0.0001,-0.0008,-0.0006,-0.0004,-0.0003,0.008,0.008,0,0,0,0,0,0,-0.0234,-0.0221,-0.0191,-0.0187,-0.02,-0.016,-0.0154,-0.0152,-0.01,-0.0092,-0.0124,-0.0121,-0.0051,-0.0044,-0.0037,-0.0018,-0.0005,-0.0003,-0.0001,0.0079,0.008,0.008,0,0,0,0,0,0,-0.0235,-0.0232,-0.0193,-0.0203,-0.0197,-0.016,-0.0158,-0.0151,-0.0139,-0.0094,-0.0085,-0.0119,-0.005,-0.0041,-0.0019,-0.0014,-0.0001,0.0001,0.0079,0.0079,0.008,0.0016,0,0,0,0,0,0,-0.0236,-0.0232,-0.0238,-0.0204,-0.0197,-0.0187,-0.0158,-0.015,-0.0137,-0.0133,-0.0087,-0.0079,-0.0049,-0.0023,-0.0016,-0.001,0.0004,0.0078,0.0079,0.008,0.0017,0.0014,0.0011,0,0,0,0,0,-0.0238,-0.0252,-0.0239,-0.0235,-0.0205,-0.0187,-0.0182,-0.0153,-0.0138,-0.0139,-0.0106,-0.008,-0.0011,-0.0021,-0.0012,-0.0006,0.0078,0.0079,0.008,0.0018,0.0015,0.0011,0,0,0,0,0,0,-0.0278,-0.0248,-0.0233,-0.0238,-0.0217,-0.018,-0.0181,-0.0158,-0.0134,-0.013,-0.0085,-0.0074,-0.0048,-0.0019,-0.003,0.0024,0.0042,0.0045,-0.0008,-0.0011,-0.0014,-0.0027,0.0006,0,0,0,0,0,-0.0288,-0.0287,-0.0256,-0.0261,-0.0253,-0.0217,-0.0207,-0.0187,-0.0159,-0.0147,-0.0114,-0.0073,-0.0037,-0.002,0.0015,0.0034,0.0069,0.005,0.0047,0.0044,0.0041,0.0085,0.0085,0.0084,0.0084,0.0084,0,0,-0.0304,-0.0289,-0.0288,-0.0268,-0.0249,-0.0247,-0.021,-0.02,-0.0192,-0.0143,-0.0125,-0.0086,-0.0034,-0.0008,0.0008,0.0016,0.0065,0.0045,0.0042,0.0041,0.0086,0.0086,0.0086,0.0085,0.0084,0.0084,0,0,-0.0343,-0.0324,-0.0338,-0.0324,-0.0302,-0.0275,-0.0275,-0.024,-0.0217,-0.0198,-0.0153,-0.0116,-0.0068,-0.0027,0.0,0.0003,0.0048,0.002,-0.0008,0.0034,0.0034,0.0035,0.0084,0.0089,0.0018,0.0018,0.0018,0,-0.0366,-0.0378,-0.034,-0.0352,-0.0346,-0.0291,-0.0306,-0.0274,-0.0235,-0.0217,-0.0201,-0.0117,-0.0075,-0.0032,-0.0027,-0.0005,0.0027,-0.0004,0.0028,0.003,0.0031,0.0081,0.0088,0.0015,0.0015,0.0016,0.0016,0,-0.0412,-0.0424,-0.0432,-0.0423,-0.041,-0.0414,-0.0366,-0.0343,-0.0307,-0.0272,-0.0224,-0.0164,-0.0114,-0.0088,-0.0058,-0.002,0.0002,0.0016,0.003,0.0027,0.0081,0.0089,0.0011,0.0012,0.0013,0.0014,0,0,-0.0458,-0.0466,-0.0468,-0.0486,-0.0449,-0.0449,-0.0421,-0.0385,-0.0372,-0.0315,-0.0291,-0.0216,-0.0177,-0.0143,-0.0091,-0.005,-0.0007,-0.0019,-0.0015,0.0017,0.009,0.0137,0.0151,0.0006,0.0007,0.0008,0.0125,0,-0.0508,-0.0556,-0.0534,-0.0571,-0.0591,-0.0533,-0.0515,-0.047,-0.0416,-0.0377,-0.0291,-0.0252,-0.0198,-0.0176,-0.0125,-0.0037,0.001,-0.004,0.01,0.0105,0.0136,0.0161,0.0185,0.0294,0.0133,0.0134,0.0135,0,-0.0558,-0.0585,-0.0635,-0.0654,-0.0656,-0.0663,-0.0624,-0.0599,-0.0512,-0.047,-0.04,-0.0331,-0.0246,-0.0209,-0.006,-0.0097,-0.0009,0.0059,0.0066,0.0137,0.0167,0.0273,0.0315,0.0484,0.0148,0.0147,0.0146,0,-0.0614,-0.0656,-0.0702,-0.0708,-0.071,-0.0717,-0.0705,-0.0634,-0.0616,-0.0525,-0.05,-0.0387,-0.033,-0.021,-0.005,-0.0059,0.0113,0.0119,0.0248,0.0253,0.0316,0.0325,0.0528,0.022,0.0219,0.0219,0.0219,0,-0.0677,-0.0716,-0.0742,-0.077,-0.0829,-0.079,-0.0814,-0.0775,-0.0712,-0.0694,-0.056,-0.0515,-0.0331,-0.0202,-0.0064,0.0127,0.0109,0.0253,0.0288,0.0297,0.0302,0.0486,0.054,0.0223,0.0222,0.0222,0.0221,0,-0.0739,-0.0749,-0.0816,-0.0846,-0.0863,-0.0903,-0.0913,-0.0918,-0.0837,-0.0804,-0.0779,-0.0612,-0.043,-0.023,-0.0019,0.0109,0.0384,0.0354,0.0359,0.0392,0.0656,0.0704,0.0915,0.0994,0.051,0.0512,0.0513,0,-0.0772,-0.0812,-0.0886,-0.0942,-0.097,-0.1017,-0.1044,-0.0993,-0.0988,-0.0861,-0.0854,-0.0664,-0.0513,-0.0164,0.0096,0.0366,0.0478,0.0538,0.0527,0.0691,0.077,0.0795,0.0847,0.0592,0.0594,0.0596,0.0597,0,-0.0842,-0.0868,-0.0929,-0.105,-0.1116,-0.1168,-0.1199,-0.121,-0.1122,-0.1058,-0.0934,-0.0796,-0.0438,-0.0105,0.0257,0.0416,0.0652,0.0581,0.0754,0.0858,0.0897,0.0982,0.0499,0.0613,0.0611,0.061,0.0609,0.0608,-0.0888,-0.0962,-0.1049,-0.1169,-0.124,-0.1296,-0.1319,-0.131,-0.1272,-0.1138,-0.1009,-0.0758,-0.0277,0.0248,0.0439,0.0854,0.0801,0.0971,0.1019,0.1033,0.1105,0.066,0.0806,0.0806,0.0806,0.0805,0.0805,0,-0.0948,-0.1042,-0.1163,-0.1291,-0.1379,-0.1385,-0.1403,-0.1371,-0.1307,-0.1155,-0.099,-0.0458,0.0027,0.0476,0.1056,0.1282,0.1314,0.1392,0.1443,0.1476,0.11,0.1101,0.1314,0.1314,0.1314,0.1314,0.1314,0.1313,-0.0989,-0.1122,-0.1201,-0.1381,-0.1457,-0.1505,-0.1495,-0.1405,-0.1277,-0.0976,-0.068,-0.0457,0.0206,0.112,0.1659,0.1706,0.1876,0.1858,0.1952,0.1707,0.1671,0.1637,0.1655,0.1981,0.1982,0.2309,0.2312,0.2315]}],[{"header":{"parameterUnit":"m.s-1","parameterCategory":2,"la1":30.2991,"la2":30.254,"lo1":-89.0895,"lo2":-89.0444,"dy":0.0017,"dx":0.0017,"nx":28,"ny":28,"refTime":"2025-12-16T09:00:00:Z","depth":"2","parameterNumber":2,"parameterNumberName":"U-component_of_CURRENTS"},"data":[0,0,0,0,0,0,0,0,0,0,0,0,0,0,0,0,0,0,0,0,0,0,0,0,0,0,0,0,0,0,0,0,0,0,0,0,0,0,0,0,0,0,0,0,0,0,0,0,0,0,0,0,0,0,0,0,0,0,-0.1867,-0.1867,0,-0.1901,-0.1901,-0.1902,-0.1908,-0.1908,-0.1907,-0.1907,-0.197,-0.1972,-0.1974,0,0,0,0,0,0,0,0,0,0,0,0,0,-0.1794,-0.1796,-0.1867,-0.1867,-0.1868,-0.1901,-0.1901,-0.1902,-0.1908,-0.1908,-0.1907,-0.1907,-0.1969,-0.1972,-0.1974,0,0,0,0,0,0,0,0,0,0,0,0,0,-0.1827,-0.1796,-0.1867,-0.1875,-0.1876,-0.1901,-0.1901,-0.1902,-0.1908,-0.1908,-0.1907,-0.1907,-0.1968,-0.1971,-0.1974,-0.2001,0,0,-0.1983,-0.1984,0,0,0,0,0,0,0,0,-0.1825,-0.183,-0.1873,-0.1874,-0.1875,-0.1899,-0.1899,-0.1937,-0.1908,-0.1896,-0.1907,-0.1907,-0.1949,-0.1954,-0.1961,-0.2004,-0.2007,-0.1983,-0.1985,-0.1986,-0.1987,0,0,0,0,0,0,0,-0.1823,-0.1828,-0.1881,-0.1873,-0.1875,-0.1872,-0.1876,-0.1906,-0.1926,-0.1897,-0.1898,-0.1901,-0.195,-0.1958,-0.1963,-0.2008,-0.1983,-0.1986,-0.1988,-0.1989,-0.2135,-0.2137,0,0,0,0,0,0,-0.182,-0.1827,-0.188,-0.1882,-0.1848,-0.1874,-0.1878,-0.1892,-0.1925,-0.1929,-0.1901,-0.1901,-0.1953,-0.1959,-0.1965,-0.2072,-0.1986,-0.1989,-0.1991,-0.2133,-0.2136,-0.2138,0,0,0,0,0,0,-0.1818,-0.1825,-0.1878,-0.1854,-0.186,-0.1875,-0.1891,-0.1893,-0.191,-0.1927,-0.1932,-0.1917,-0.1953,-0.1961,-0.2044,-0.2071,-0.1991,-0.1993,-0.2131,-0.2134,-0.2137,-0.2239,0,0,0,0,0,0,-0.1816,-0.1824,-0.1835,-0.1854,-0.1862,-0.1907,-0.1891,-0.1894,-0.1913,-0.1913,-0.1943,-0.1947,-0.1953,-0.204,-0.2047,-0.2074,-0.1995,-0.2128,-0.2132,-0.2136,-0.2233,-0.2245,-0.2256,0,0,0,0,0,-0.1814,-0.183,-0.1836,-0.1842,-0.1876,-0.1908,-0.1912,-0.192,-0.1914,-0.1932,-0.198,-0.1947,-0.2068,-0.2046,-0.2053,-0.2081,-0.2126,-0.2131,-0.2135,-0.2228,-0.2243,-0.2255,0,0,0,0,0,0,-0.1797,-0.1832,-0.1839,-0.1863,-0.189,-0.1909,-0.1918,-0.1929,-0.1977,-0.1978,-0.1997,-0.2008,-0.2078,-0.2075,-0.2049,-0.2133,-0.2081,-0.2088,-0.2149,-0.2163,-0.2174,-0.2156,-0.1998,0,0,0,0,0,-0.18,-0.1824,-0.1856,-0.1874,-0.1887,-0.1906,-0.1918,-0.1928,-0.1968,-0.1986,-0.2014,-0.2049,-0.2101,-0.2131,-0.2158,-0.2225,-0.2201,-0.2239,-0.2251,-0.226,-0.2251,-0.2287,-0.23,-0.2154,-0.2154,-0.2153,0,0,-0.1798,-0.1818,-0.1832,-0.1872,-0.1886,-0.1928,-0.1913,-0.1936,-0.199,-0.1988,-0.2068,-0.2088,-0.2126,-0.22,-0.2228,-0.2206,-0.2287,-0.2266,-0.2275,-0.2259,-0.2293,-0.2307,-0.232,-0.2157,-0.2156,-0.2156,0,0,-0.1803,-0.1824,-0.1848,-0.1879,-0.191,-0.1936,-0.1949,-0.1983,-0.2018,-0.2097,-0.2115,-0.2161,-0.2229,-0.2268,-0.2298,-0.2388,-0.2342,-0.239,-0.2445,-0.2482,-0.2493,-0.2504,-0.2476,-0.2483,-0.2403,-0.2403,-0.2403,0,-0.1799,-0.1838,-0.1859,-0.1894,-0.1924,-0.1947,-0.1988,-0.2041,-0.2104,-0.2156,-0.213,-0.2233,-0.2257,-0.2363,-0.24,-0.241,-0.2409,-0.2394,-0.2496,-0.2506,-0.2515,-0.2484,-0.249,-0.2408,-0.2408,-0.2407,-0.2407,0,-0.1828,-0.1867,-0.1881,-0.1945,-0.1982,-0.2017,-0.2088,-0.216,-0.2193,-0.2231,-0.2318,-0.2343,-0.2397,-0.2417,-0.2446,-0.2531,-0.25,-0.2502,-0.2459,-0.2536,-0.2498,-0.2503,-0.2416,-0.2414,-0.2413,-0.2411,0,0,-0.18,-0.1888,-0.1893,-0.1933,-0.2012,-0.2043,-0.2169,-0.2277,-0.2357,-0.2393,-0.2473,-0.2545,-0.2518,-0.2548,-0.2563,-0.2602,-0.2662,-0.2592,-0.2592,-0.2559,-0.2712,-0.2608,-0.2602,-0.2702,-0.2704,-0.2706,-0.2654,0,-0.1817,-0.1886,-0.1934,-0.2015,-0.2059,-0.215,-0.226,-0.2364,-0.2439,-0.253,-0.2557,-0.2613,-0.2583,-0.26,-0.2637,-0.2658,-0.2683,-0.2672,-0.2645,-0.2642,-0.2539,-0.2608,-0.2404,-0.2335,-0.2658,-0.2659,-0.2659,0,-0.1827,-0.1877,-0.1952,-0.2066,-0.2093,-0.2162,-0.2331,-0.2428,-0.2585,-0.2638,-0.2689,-0.2696,-0.275,-0.2705,-0.2737,-0.2739,-0.2732,-0.273,-0.2728,-0.2595,-0.2549,-0.2315,-0.2331,-0.2667,-0.2666,-0.2666,-0.2665,0,-0.1783,-0.1887,-0.1946,-0.1983,-0.2123,-0.2206,-0.2295,-0.2461,-0.2553,-0.2694,-0.2736,-0.2785,-0.2787,-0.2803,-0.276,-0.2778,-0.2769,-0.2788,-0.2674,-0.2664,-0.246,-0.2429,-0.2816,-0.2816,-0.2816,-0.2817,-0.2817,0,-0.1783,-0.1828,-0.1936,-0.1971,-0.208,-0.2172,-0.2311,-0.2436,-0.2573,-0.2641,-0.275,-0.2767,-0.2821,-0.281,-0.2786,-0.2709,-0.2775,-0.2678,-0.2658,-0.2487,-0.2461,-0.2725,-0.2716,-0.2814,-0.2815,-0.2815,-0.2816,0,-0.1739,-0.18,-0.1873,-0.2007,-0.2064,-0.2136,-0.2315,-0.2399,-0.2542,-0.2632,-0.2666,-0.2768,-0.2756,-0.2759,-0.2764,-0.2713,-0.2672,-0.263,-0.2388,-0.2342,-0.2538,-0.2534,-0.2525,-0.2521,-0.2518,-0.2515,-0.2513,0,-0.1723,-0.1752,-0.1883,-0.1926,-0.1995,-0.2125,-0.2216,-0.238,-0.2448,-0.2589,-0.2596,-0.2649,-0.2632,-0.2589,-0.2541,-0.2474,-0.256,-0.2248,-0.2258,-0.2534,-0.2516,-0.2517,-0.2517,-0.2015,-0.2009,-0.2004,-0.2,0,-0.1684,-0.1724,-0.1785,-0.1883,-0.1961,-0.2061,-0.2182,-0.2222,-0.2368,-0.2429,-0.244,-0.2438,-0.2437,-0.2289,-0.224,-0.2174,-0.225,-0.2145,-0.2506,-0.2128,-0.2051,-0.2034,-0.2052,-0.1955,-0.196,-0.1963,-0.1965,-0.1967,-0.1642,-0.1669,-0.1735,-0.1816,-0.1902,-0.1939,-0.1955,-0.2043,-0.2084,-0.2102,-0.2185,-0.2128,-0.2136,-0.1974,-0.1872,-0.1821,-0.1993,-0.19,-0.1917,-0.1938,-0.1896,-0.182,-0.1668,-0.167,-0.1673,-0.1675,-0.1677,0,-0.1578,-0.1603,-0.1665,-0.1728,-0.1755,-0.184,-0.1886,-0.1847,-0.1802,-0.1843,-0.1834,-0.1652,-0.1566,-0.1592,-0.1458,-0.1442,-0.1444,-0.1368,-0.1366,-0.141,-0.1449,-0.1385,-0.1019,-0.1018,-0.1016,-0.1014,0,0,-0.1539,-0.1545,-0.1566,-0.1548,-0.1595,-0.1544,-0.1517,-0.1465,-0.146,-0.1375,-0.135,-0.1465,-0.1523,-0.1265,-0.121,-0.1093,-0.1239,-0.1034,-0.1556,-0.1595,-0.1632,-0.1745,-0.1692,0,0,0,0,0]},{"header":{"parameterUnit":"m.s-1","parameterCategory":2,"la1":30.2991,"la2":30.254,"lo1":-89.0895,"lo2":-89.0444,"dy":0.0017,"dx":0.0017,"nx":28,"ny":28,"refTime":"2025-12-16T09:00:00:Z","depth":"2","parameterNumber":3,"parameterNumberName":"V-component_of_CURRENTS"},"data":[0,0,0,0,0,0,0,0,0,0,0,0,0,0,0,0,0,0,0,0,0,0,0,0,0,0,0,0,0,0,0,0,0,0,0,0,0,0,0,0,0,0,0,0,0,0,0,0,0,0,0,0,0,0,0,0,0,0,-0.0086,-0.0085,0,-0.0011,-0.001,-0.0009,0.003,0.003,0.0031,0.0031,0.0129,0.0132,0.0134,0,0,0,0,0,0,0,0,0,0,0,0,0,-0.0146,-0.0145,-0.0086,-0.0085,-0.0084,-0.0011,-0.001,-0.0009,0.003,0.003,0.0031,0.0031,0.0128,0.0131,0.0134,0,0,0,0,0,0,0,0,0,0,0,0,0,-0.0101,-0.0145,-0.0086,-0.0055,-0.0051,-0.0011,-0.001,-0.0009,0.003,0.003,0.0031,0.0031,0.0127,0.0131,0.0135,0.0153,0,0,0.0146,0.0148,0,0,0,0,0,0,0,0,-0.0104,-0.0099,-0.006,-0.0057,-0.0053,0.0001,0.0005,0.0047,0.003,-0.0002,0.0031,0.0031,0.0089,0.0096,0.0108,0.0158,0.0162,0.0146,0.0149,0.015,0.0151,0,0,0,0,0,0,0,-0.0107,-0.0102,-0.0057,-0.0059,-0.0055,-0.0027,-0.0021,0.0013,0.0041,0.0001,0.0004,0.0014,0.0091,0.0104,0.0111,0.0163,0.0146,0.015,0.0152,0.0153,0.0233,0.0233,0,0,0,0,0,0,-0.0117,-0.0105,-0.006,-0.0055,-0.0077,-0.0027,-0.002,-0.0017,0.004,0.0049,0.0014,0.0016,0.0098,0.0106,0.0114,0.0125,0.015,0.0154,0.0156,0.0233,0.0233,0.0233,0,0,0,0,0,0,-0.0119,-0.0114,-0.0063,-0.0077,-0.0068,-0.0026,-0.0023,-0.0016,-0.0005,0.005,0.0059,0.0017,0.0098,0.0109,0.0129,0.0129,0.0155,0.0159,0.0233,0.0233,0.0233,0.0155,0,0,0,0,0,0,-0.0121,-0.0115,-0.0121,-0.0078,-0.0068,-0.0048,-0.0023,-0.0014,0.0002,0.0005,0.0056,0.0065,0.0099,0.0123,0.0132,0.0135,0.0162,0.0233,0.0233,0.0233,0.0158,0.0153,0.0148,0,0,0,0,0,-0.0124,-0.0134,-0.0122,-0.0116,-0.0076,-0.0048,-0.0041,-0.001,0.0001,0.0001,0.0028,0.0064,0.0129,0.0125,0.0137,0.014,0.0234,0.0233,0.0233,0.016,0.0154,0.0148,0,0,0,0,0,0,-0.0163,-0.0129,-0.0116,-0.0115,-0.0087,-0.0041,-0.0038,-0.0016,0.0007,0.0007,0.0055,0.0066,0.009,0.0123,0.0117,0.0164,0.0191,0.0193,0.0132,0.0126,0.0121,0.0117,0.0165,0,0,0,0,0,-0.0174,-0.0174,-0.0134,-0.0134,-0.0123,-0.0083,-0.0069,-0.0047,-0.0018,-0.0008,0.0029,0.0067,0.0099,0.0115,0.0152,0.017,0.0211,0.0184,0.0178,0.0174,0.0179,0.0225,0.0224,0.0232,0.0232,0.0232,0,0,-0.0189,-0.0171,-0.017,-0.0142,-0.012,-0.0112,-0.0074,-0.0058,-0.005,0.0,0.0015,0.0051,0.01,0.0121,0.0136,0.0147,0.0193,0.0173,0.0169,0.0177,0.0225,0.0224,0.0223,0.0232,0.0232,0.0232,0,0,-0.0219,-0.0203,-0.0213,-0.0196,-0.0166,-0.0138,-0.0136,-0.0094,-0.0075,-0.0053,-0.0017,0.0014,0.0064,0.0097,0.0121,0.0112,0.0166,0.0124,0.0093,0.0136,0.0136,0.0136,0.0182,0.0187,0.0119,0.0118,0.0118,0,-0.0241,-0.0247,-0.0212,-0.0217,-0.0208,-0.0155,-0.0162,-0.0133,-0.009,-0.0077,-0.0057,0.0022,0.0058,0.009,0.0081,0.0102,0.0132,0.0108,0.0129,0.013,0.0132,0.0179,0.0185,0.0115,0.0115,0.0115,0.0116,0,-0.0274,-0.0282,-0.0287,-0.0277,-0.026,-0.0259,-0.0214,-0.0197,-0.0163,-0.0128,-0.0083,-0.0027,0.0021,0.0036,0.0053,0.0081,0.0101,0.0117,0.014,0.0126,0.0177,0.0185,0.0109,0.0111,0.0112,0.0113,0,0,-0.0317,-0.0315,-0.0317,-0.0331,-0.0295,-0.029,-0.0272,-0.024,-0.0231,-0.017,-0.0149,-0.0086,-0.0045,-0.0015,0.0023,0.0057,0.0086,0.0079,0.0083,0.0116,0.018,0.0206,0.0218,0.0097,0.0098,0.0099,0.0209,0,-0.0357,-0.0392,-0.0368,-0.0397,-0.0413,-0.0364,-0.0354,-0.0316,-0.0267,-0.0233,-0.0154,-0.0118,-0.0066,-0.0051,-0.0005,0.006,0.0105,0.0055,0.0197,0.0201,0.022,0.0228,0.0197,0.0293,0.0217,0.0218,0.022,0,-0.0398,-0.0418,-0.0456,-0.047,-0.047,-0.0476,-0.045,-0.043,-0.036,-0.0321,-0.0251,-0.0186,-0.0119,-0.0079,0.0056,0.0018,0.0094,0.0153,0.0159,0.0219,0.0243,0.0298,0.0311,0.0234,0.0233,0.0232,0.0231,0,-0.0452,-0.048,-0.0517,-0.0522,-0.052,-0.0531,-0.0522,-0.0464,-0.0453,-0.0377,-0.0357,-0.0244,-0.0197,-0.008,0.0056,0.0048,0.0204,0.0214,0.0322,0.0325,0.0348,0.0351,0.0317,0.0317,0.0316,0.0316,0.0316,0,-0.0507,-0.0539,-0.0556,-0.058,-0.0637,-0.0597,-0.0623,-0.0593,-0.054,-0.0529,-0.0411,-0.0371,-0.0199,-0.0084,0.0042,0.0213,0.0206,0.0328,0.0358,0.032,0.0319,0.0307,0.0305,0.032,0.0319,0.0318,0.0318,0,-0.0566,-0.0569,-0.0626,-0.065,-0.0669,-0.0708,-0.0722,-0.0727,-0.066,-0.0639,-0.0622,-0.0474,-0.0313,-0.0125,0.0069,0.019,0.0349,0.0413,0.0359,0.0381,0.0445,0.0437,0.0545,0.0547,0.0548,0.055,0.0551,0,-0.0594,-0.063,-0.0697,-0.0751,-0.0776,-0.0824,-0.0853,-0.0804,-0.0799,-0.0699,-0.0696,-0.0535,-0.0401,-0.0087,0.0146,0.0397,0.0397,0.0505,0.0494,0.0451,0.047,0.046,0.045,0.0494,0.0495,0.0495,0.0496,0,-0.0657,-0.0682,-0.0735,-0.0858,-0.092,-0.0971,-0.1002,-0.101,-0.093,-0.0883,-0.078,-0.0663,-0.035,-0.0073,0.0251,0.039,0.0463,0.0523,0.0502,0.0435,0.0411,0.0427,0.0418,0.05,0.05,0.0499,0.0499,0.0499,-0.0703,-0.0771,-0.0855,-0.097,-0.1043,-0.1097,-0.1119,-0.1107,-0.1077,-0.0963,-0.0851,-0.0639,-0.0368,0.0098,0.0324,0.0534,0.0532,0.0588,0.0584,0.0579,0.0548,0.0527,0.0632,0.0633,0.0633,0.0633,0.0633,0,-0.0773,-0.0852,-0.0966,-0.1088,-0.1178,-0.1188,-0.1203,-0.117,-0.1118,-0.0984,-0.0843,-0.053,-0.0207,0.0076,0.0415,0.0616,0.0598,0.0643,0.0579,0.0574,0.057,0.0535,0.0618,0.0619,0.0619,0.062,0,0,-0.0817,-0.094,-0.1006,-0.1175,-0.1256,-0.1309,-0.13,-0.1218,-0.1103,-0.0942,-0.0775,-0.0547,-0.0198,0.0038,0.029,0.0465,0.0465,0.0479,0.047,0.0361,0.0354,0.052,0.0458,0,0,0,0,0]}],[{"header":{"parameterUnit":"m.s-1","parameterCategory":2,"la1":30.2991,"la2":30.254,"lo1":-89.0895,"lo2":-89.0444,"dy":0.0017,"dx":0.0017,"nx":28,"ny":28,"refTime":"2025-12-16T09:00:00:Z","depth":"4","parameterNumber":2,"parameterNumberName":"U-component_of_CURRENTS"},"data":[0,0,0,0,0,0,0,0,0,0,0,0,0,0,0,0,0,0,0,0,0,0,0,0,0,0,0,0,0,0,0,0,0,0,0,0,0,0,0,0,0,0,0,0,0,0,0,0,0,0,0,0,0,0,0,0,0,0,-0.1061,-0.1061,0,-0.1071,-0.1071,-0.1071,-0.1081,-0.1081,-0.1081,-0.1082,-0.1037,-0.1035,-0.1034,0,0,0,0,0,0,0,0,0,0,0,0,0,-0.1018,-0.1019,-0.1061,-0.1061,-0.1062,-0.1071,-0.1071,-0.1071,-0.1081,-0.1081,-0.1081,-0.1082,-0.1037,-0.1035,-0.1034,0,0,0,0,0,0,0,0,0,0,0,0,0,-0.1032,-0.1019,-0.1061,-0.1069,-0.107,-0.1071,-0.1071,-0.1071,-0.1081,-0.1081,-0.1081,-0.1082,-0.1038,-0.1036,-0.1033,-0.1011,0,0,-0.1027,-0.1026,0,0,0,0,0,0,0,0,-0.1031,-0.1033,-0.1067,-0.1068,-0.1069,-0.1076,-0.1039,-0.1049,-0.108,-0.1075,-0.1082,-0.1082,-0.1046,-0.1043,-0.1042,-0.1009,-0.1007,-0.1027,-0.1025,-0.1024,-0.1024,0,0,0,0,0,0,0,-0.103,-0.1032,-0.1063,-0.1068,-0.1069,-0.1061,-0.1063,-0.1041,-0.1055,-0.1075,-0.1076,-0.108,-0.1046,-0.1044,-0.1041,-0.1007,-0.1027,-0.1025,-0.1023,-0.1022,-0.099,-0.0991,0,0,0,0,0,0,-0.1033,-0.1032,-0.1063,-0.1064,-0.1053,-0.1061,-0.1064,-0.1072,-0.1057,-0.1056,-0.108,-0.108,-0.1048,-0.1044,-0.1039,-0.1044,-0.1024,-0.1022,-0.1021,-0.099,-0.099,-0.0991,0,0,0,0,0,0,-0.1033,-0.1036,-0.1063,-0.1049,-0.1052,-0.1062,-0.1071,-0.1072,-0.1092,-0.1061,-0.1059,-0.11,-0.1048,-0.1042,-0.1024,-0.1041,-0.1021,-0.1019,-0.0989,-0.099,-0.0991,-0.1033,0,0,0,0,0,0,-0.1031,-0.1036,-0.1045,-0.1049,-0.1053,-0.107,-0.1071,-0.1072,-0.1093,-0.1094,-0.1077,-0.1072,-0.1048,-0.1028,-0.1022,-0.1038,-0.1018,-0.0989,-0.099,-0.099,-0.1031,-0.1035,-0.1039,0,0,0,0,0,-0.103,-0.1037,-0.1046,-0.1049,-0.1065,-0.1071,-0.1072,-0.1078,-0.1093,-0.1099,-0.1084,-0.1074,-0.103,-0.1026,-0.1019,-0.1035,-0.0988,-0.0989,-0.099,-0.1029,-0.1034,-0.1038,0,0,0,0,0,0,-0.1018,-0.104,-0.1048,-0.1062,-0.107,-0.1073,-0.1085,-0.1092,-0.1088,-0.1094,-0.107,-0.1063,-0.1052,-0.1038,-0.1035,-0.1029,-0.1012,-0.1011,-0.1044,-0.1048,-0.1052,-0.1065,-0.1016,0,0,0,0,0,-0.1022,-0.1039,-0.1051,-0.1063,-0.1074,-0.1086,-0.1093,-0.1098,-0.1095,-0.1096,-0.1086,-0.1071,-0.1048,-0.1045,-0.1019,-0.1016,-0.104,-0.1025,-0.1029,-0.1032,-0.1039,-0.1088,-0.1098,-0.0994,-0.0994,-0.0994,0,0,-0.1025,-0.1036,-0.1049,-0.1063,-0.1077,-0.1081,-0.1092,-0.1109,-0.1109,-0.1089,-0.1091,-0.1078,-0.1047,-0.1037,-0.1034,-0.1032,-0.1078,-0.1034,-0.1037,-0.1042,-0.109,-0.1101,-0.111,-0.0995,-0.0995,-0.0995,0,0,-0.1029,-0.1051,-0.1065,-0.1074,-0.1093,-0.1092,-0.1104,-0.1118,-0.1126,-0.1118,-0.1106,-0.1111,-0.1076,-0.107,-0.1057,-0.1069,-0.1088,-0.1064,-0.1103,-0.1151,-0.116,-0.1169,-0.1233,-0.1247,-0.1076,-0.1076,-0.1077,0,-0.1032,-0.1043,-0.1068,-0.1076,-0.1081,-0.1101,-0.1105,-0.1111,-0.1114,-0.1125,-0.1121,-0.1115,-0.1092,-0.1095,-0.1095,-0.108,-0.1116,-0.1088,-0.1158,-0.1167,-0.1175,-0.1238,-0.1253,-0.1079,-0.1078,-0.1078,-0.1078,0,-0.1034,-0.1049,-0.106,-0.1074,-0.1082,-0.1091,-0.1101,-0.1114,-0.1126,-0.1136,-0.1155,-0.1142,-0.1144,-0.1142,-0.1114,-0.1162,-0.1173,-0.1151,-0.1151,-0.1188,-0.1253,-0.1267,-0.1082,-0.1081,-0.108,-0.108,0,0,-0.1021,-0.1056,-0.1059,-0.1068,-0.1081,-0.1088,-0.1094,-0.1107,-0.1141,-0.1148,-0.1198,-0.1165,-0.1194,-0.1183,-0.118,-0.1224,-0.1309,-0.1216,-0.1217,-0.1288,-0.144,-0.133,-0.1336,-0.1305,-0.1307,-0.1309,-0.147,0,-0.1012,-0.1028,-0.1042,-0.105,-0.1059,-0.1077,-0.1088,-0.1107,-0.1137,-0.1193,-0.1211,-0.1253,-0.12,-0.1236,-0.126,-0.1299,-0.1347,-0.1269,-0.1385,-0.1389,-0.1293,-0.1348,-0.1316,-0.1481,-0.1484,-0.1487,-0.1489,0,-0.0994,-0.1008,-0.1021,-0.1051,-0.1061,-0.1069,-0.111,-0.1124,-0.1195,-0.1228,-0.1276,-0.1318,-0.1376,-0.1343,-0.1425,-0.1381,-0.1408,-0.144,-0.1447,-0.1337,-0.1305,-0.143,-0.1515,-0.1513,-0.1511,-0.1509,-0.1508,0,-0.0957,-0.0986,-0.0996,-0.1004,-0.1043,-0.106,-0.1081,-0.1141,-0.118,-0.1282,-0.1355,-0.1408,-0.1481,-0.1509,-0.1549,-0.1506,-0.1664,-0.1612,-0.1546,-0.154,-0.1573,-0.1562,-0.1682,-0.1682,-0.1682,-0.1681,-0.1681,0,-0.0915,-0.0928,-0.099,-0.0994,-0.1019,-0.1057,-0.1107,-0.114,-0.1239,-0.1318,-0.1385,-0.1476,-0.153,-0.162,-0.1616,-0.1628,-0.1713,-0.1568,-0.1572,-0.1589,-0.1578,-0.1586,-0.1572,-0.1687,-0.1686,-0.1685,-0.1684,0,-0.0857,-0.0899,-0.0923,-0.0983,-0.1,-0.1023,-0.1105,-0.1158,-0.1257,-0.1376,-0.1428,-0.1561,-0.1659,-0.1714,-0.1803,-0.1723,-0.1751,-0.1737,-0.1794,-0.1797,-0.1584,-0.1571,-0.1676,-0.1673,-0.1671,-0.1669,-0.1668,0,-0.0831,-0.0837,-0.0906,-0.0933,-0.096,-0.1009,-0.1049,-0.1138,-0.1208,-0.1419,-0.1481,-0.1647,-0.1715,-0.1768,-0.1796,-0.1808,-0.1764,-0.1779,-0.1623,-0.1589,-0.1583,-0.1574,-0.1564,-0.1664,-0.1664,-0.1663,-0.1662,0,-0.078,-0.0815,-0.0837,-0.0879,-0.0927,-0.0976,-0.1051,-0.11,-0.124,-0.1364,-0.1509,-0.1581,-0.1695,-0.172,-0.1752,-0.1742,-0.1762,-0.1755,-0.1757,-0.161,-0.1576,-0.157,-0.1563,-0.1655,-0.1656,-0.1657,-0.1657,0,-0.0753,-0.0752,-0.0785,-0.0812,-0.0873,-0.0921,-0.0974,-0.1073,-0.1147,-0.1382,-0.1434,-0.1589,-0.1709,-0.1692,-0.1721,-0.1701,-0.1639,-0.1559,-0.157,-0.1579,-0.1458,-0.1395,-0.1439,0,0,0,0,0,-0.0709,-0.0686,-0.0716,-0.0739,-0.0801,-0.0835,-0.0963,-0.1035,-0.1196,-0.1266,-0.1343,-0.1442,-0.1503,-0.1569,-0.1519,-0.1633,-0.1622,-0.1565,-0.153,-0.1613,-0.1622,-0.148,0,0,0,0,0,0,-0.0674,-0.0681,-0.0677,-0.0669,-0.0681,-0.0738,-0.0827,-0.0951,-0.0993,-0.117,-0.1206,-0.1332,-0.1395,-0.1503,-0.1481,-0.1495,-0.1439,-0.1643,-0.1638,-0.1608,-0.1616,-0.1623,-0.148,0,0,0,0,0]},{"header":{"parameterUnit":"m.s-1","parameterCategory":2,"la1":30.2991,"la2":30.254,"lo1":-89.0895,"lo2":-89.0444,"dy":0.0017,"dx":0.0017,"nx":28,"ny":28,"refTime":"2025-12-16T09:00:00:Z","depth":"4","parameterNumber":3,"parameterNumberName":"V-component_of_CURRENTS"},"data":[0,0,0,0,0,0,0,0,0,0,0,0,0,0,0,0,0,0,0,0,0,0,0,0,0,0,0,0,0,0,0,0,0,0,0,0,0,0,0,0,0,0,0,0,0,0,0,0,0,0,0,0,0,0,0,0,0,0,-0.0001,-0.0001,0,0.0064,0.0065,0.0065,0.0098,0.0098,0.0098,0.0098,0.0165,0.0167,0.0168,0,0,0,0,0,0,0,0,0,0,0,0,0,-0.0044,-0.0044,-0.0002,-0.0001,0.0,0.0064,0.0065,0.0065,0.0098,0.0098,0.0098,0.0098,0.0164,0.0166,0.0169,0,0,0,0,0,0,0,0,0,0,0,0,0,-0.0007,-0.0044,-0.0002,0.0024,0.0027,0.0063,0.0065,0.0066,0.0098,0.0098,0.0098,0.0098,0.0164,0.0166,0.0169,0.0186,0,0,0.0177,0.0178,0,0,0,0,0,0,0,0,-0.0009,-0.0005,0.0019,0.0022,0.0025,0.0073,0.0074,0.0106,0.0098,0.0071,0.0098,0.0098,0.0134,0.0139,0.0152,0.0189,0.0192,0.0177,0.0179,0.018,0.0181,0,0,0,0,0,0,0,-0.0012,-0.0008,0.0024,0.002,0.0024,0.0051,0.0055,0.0081,0.0102,0.0073,0.0076,0.0083,0.0136,0.0149,0.0153,0.0193,0.0177,0.018,0.0181,0.0182,0.0228,0.0228,0,0,0,0,0,0,-0.0023,-0.0011,0.0022,0.0026,0.0008,0.0051,0.0057,0.0057,0.0102,0.0108,0.0083,0.0084,0.0144,0.015,0.0156,0.0167,0.018,0.0183,0.0184,0.0229,0.0228,0.0228,0,0,0,0,0,0,-0.0024,-0.0021,0.002,0.001,0.0017,0.0051,0.0053,0.0059,0.0072,0.0109,0.0116,0.009,0.0145,0.0152,0.0179,0.017,0.0184,0.0186,0.0229,0.0228,0.0228,0.0197,0,0,0,0,0,0,-0.0026,-0.0022,-0.0025,0.0009,0.0017,0.0038,0.0053,0.006,0.0077,0.0079,0.0117,0.0124,0.0145,0.0175,0.0182,0.0174,0.0188,0.023,0.0229,0.0228,0.0198,0.0195,0.0192,0,0,0,0,0,-0.0028,-0.0032,-0.0026,-0.0022,0.0011,0.0038,0.0044,0.0069,0.0077,0.0082,0.0109,0.0122,0.0174,0.0177,0.0185,0.0178,0.023,0.0229,0.0228,0.0199,0.0196,0.0192,0,0,0,0,0,0,-0.0051,-0.0028,-0.0021,-0.0018,0.0006,0.0043,0.0049,0.0068,0.0093,0.0094,0.0127,0.0136,0.015,0.017,0.0173,0.0187,0.02,0.0201,0.0176,0.0173,0.017,0.0163,0.0191,0,0,0,0,0,-0.0059,-0.0059,-0.0029,-0.0027,-0.0018,0.0015,0.0028,0.0046,0.0074,0.0085,0.0113,0.0137,0.0153,0.0168,0.0185,0.0205,0.0228,0.0201,0.0198,0.0196,0.0195,0.0228,0.0228,0.0225,0.0225,0.0225,0,0,-0.0066,-0.0055,-0.0054,-0.0032,-0.0014,-0.0005,0.0023,0.004,0.0047,0.0088,0.0106,0.0128,0.0154,0.0168,0.0176,0.0186,0.0208,0.0195,0.0192,0.0193,0.0227,0.0228,0.0228,0.0224,0.0224,0.0224,0,0,-0.0081,-0.0074,-0.0077,-0.0063,-0.0039,-0.0019,-0.0016,0.002,0.0035,0.0058,0.008,0.0103,0.0135,0.0154,0.0165,0.0159,0.0187,0.0157,0.0145,0.0178,0.0178,0.0179,0.0207,0.021,0.0161,0.0161,0.0161,0,-0.0093,-0.0093,-0.0072,-0.0072,-0.0067,-0.0029,-0.0031,-0.001,0.0032,0.0039,0.0056,0.01,0.0127,0.0142,0.014,0.0153,0.0174,0.0157,0.0175,0.0176,0.0178,0.0206,0.021,0.016,0.016,0.016,0.016,0,-0.0106,-0.0109,-0.0111,-0.0103,-0.0094,-0.0088,-0.0061,-0.0047,-0.0025,-0.0002,0.0021,0.0066,0.0091,0.0101,0.0122,0.0139,0.0151,0.0163,0.0184,0.0176,0.0206,0.0211,0.0157,0.0158,0.0158,0.0159,0,0,-0.0129,-0.0122,-0.0125,-0.0136,-0.0112,-0.0112,-0.0101,-0.0084,-0.0086,-0.0038,-0.0032,0.0012,0.004,0.0056,0.0087,0.0124,0.0157,0.0148,0.015,0.0177,0.0226,0.0223,0.0228,0.0174,0.0175,0.0175,0.0242,0,-0.0147,-0.0162,-0.0151,-0.0172,-0.0179,-0.0156,-0.0156,-0.0138,-0.0111,-0.0095,-0.0043,-0.0025,0.0021,0.0033,0.0077,0.013,0.017,0.0138,0.0229,0.0232,0.0231,0.0234,0.0178,0.0246,0.0247,0.0248,0.0249,0,-0.0163,-0.0175,-0.0196,-0.0219,-0.0222,-0.023,-0.0234,-0.0226,-0.0192,-0.017,-0.0128,-0.0089,-0.0033,0.0006,0.0112,0.0089,0.0155,0.0206,0.021,0.0221,0.0238,0.0257,0.0259,0.0258,0.0257,0.0257,0.0256,0,-0.0193,-0.0213,-0.0236,-0.0241,-0.0251,-0.0266,-0.0271,-0.0251,-0.0257,-0.0213,-0.0212,-0.0133,-0.0101,-0.0005,0.0109,0.0109,0.0226,0.0238,0.03,0.03,0.0298,0.0296,0.0316,0.0316,0.0316,0.0315,0.0315,0,-0.0213,-0.0238,-0.0258,-0.0271,-0.0323,-0.031,-0.0347,-0.0335,-0.0321,-0.0335,-0.0254,-0.0239,-0.0101,-0.0018,0.0091,0.0212,0.0217,0.0298,0.0318,0.0282,0.0278,0.0302,0.0299,0.0318,0.0317,0.0317,0.0316,0,-0.0232,-0.024,-0.0285,-0.0316,-0.0336,-0.0373,-0.0413,-0.0435,-0.0407,-0.0419,-0.041,-0.0319,-0.0201,-0.0061,0.0097,0.0178,0.03,0.0344,0.0293,0.0309,0.0355,0.035,0.0409,0.0409,0.041,0.041,0.041,0,-0.024,-0.0259,-0.0325,-0.0378,-0.0398,-0.0449,-0.0487,-0.0479,-0.0493,-0.0466,-0.0473,-0.0372,-0.0294,-0.0071,0.0082,0.0288,0.032,0.0375,0.0371,0.0352,0.0366,0.036,0.0355,0.0411,0.0411,0.0411,0.0411,0,-0.0267,-0.029,-0.0326,-0.0426,-0.0492,-0.0555,-0.0597,-0.0615,-0.0597,-0.0582,-0.0518,-0.04,-0.0267,-0.0078,0.0086,0.0233,0.0332,0.0379,0.0379,0.0376,0.0355,0.0367,0.0361,0.0412,0.0412,0.0412,0.0412,0,-0.0293,-0.033,-0.0387,-0.0476,-0.0564,-0.063,-0.0652,-0.0655,-0.0656,-0.0606,-0.0585,-0.0429,-0.033,-0.0106,0.0043,0.019,0.0225,0.0262,0.0269,0.0269,0.0212,0.0164,0.018,0,0,0,0,0,-0.0313,-0.0353,-0.0442,-0.0535,-0.0619,-0.0665,-0.0713,-0.0716,-0.0697,-0.0659,-0.0616,-0.0484,-0.0256,-0.015,-0.0003,0.0042,0.0241,0.0217,0.0285,0.042,0.0418,0.0375,0,0,0,0,0,0,-0.0333,-0.0399,-0.0436,-0.0556,-0.0628,-0.071,-0.0743,-0.0738,-0.0697,-0.066,-0.0529,-0.0458,-0.0224,-0.0335,-0.0002,0.0043,0.0102,0.0332,0.0335,0.0421,0.0419,0.0418,0.0373,0,0,0,0,0]}]]